KC8P Weather Reports


Display with metric or nautical units.
time (UTC)temp
F
wind
direction
speed
MPH
gust
MPH
rain 1hr
in
rain 24hr
in
rain mn
in
humidity
%
barometer
mb
20260504081345 48 231 4.0 13.0 0.00 0.00 0.00 76 1005.5
20260504081239 48 228 3.0 13.0 0.00 0.00 0.00 75 1005.5
20260504081151 48 212 3.0 13.0 0.00 0.00 0.00 75 1005.5
20260504081134 48 215 4.0 13.0 0.00 0.00 0.00 75 1005.1
20260504081028 48 181 3.0 13.0 0.00 0.00 0.00 75 1005.5
20260504080922 48 181 6.0 13.0 0.00 0.00 0.00 75 1005.5
20260504080816 48 217 4.0 13.0 0.00 0.00 0.00 75 1005.1
20260504080710 48 160 4.0 13.0 0.00 0.00 0.00 75 1005.5
20260504080644 48 219 5.0 13.0 0.00 0.00 0.00 75 1005.5
20260504080604 48 201 4.0 13.0 0.00 0.00 0.00 75 1005.5
20260504080459 48 217 6.0 13.0 0.00 0.00 0.00 75 1005.1
20260504080354 48 227 4.0 10.0 0.00 0.00 0.00 75 1005.5
20260504080247 48 227 4.0 10.0 0.00 0.00 0.00 75 1005.1
20260504080142 48 188 9.0 10.0 0.00 0.00 0.00 75 1005.5
20260504070329 49 206 1.0 10.0 0.00 0.00 0.00 73 1006.1
20260504070325 49 254 2.0 10.0 0.00 0.00 0.00 73 1006.1
20260504070316 49 233 4.0 10.0 0.00 0.00 0.00 73 1006.1
20260504070307 49 204 8.0 10.0 0.00 0.00 0.00 73 1006.6
20260504060147 50 228 6.0 14.0 0.00 0.00 0.00 70 1006.9
20260504050749 51 220 3.0 18.0 0.00 0.00 0.00 68 1007.9
20260504050658 51 155 2.0 18.0 0.00 0.00 0.00 68 1007.6
20260504050553 51 216 5.0 18.0 0.00 0.00 0.00 67 1007.9
20260504050446 51 257 0.0 18.0 0.00 0.00 0.00 67 1007.6
20260504050341 52 251 6.0 18.0 0.00 0.00 0.00 67 1007.9
20260504050235 52 227 8.0 18.0 0.00 0.00 0.00 67 1007.9
20260504050129 52 200 11.0 18.0 0.00 0.00 0.00 67 1007.9
20260504050023 51 181 11.0 18.0 0.00 0.00 0.00 67 1007.9
20260504045917 51 210 14.0 18.0 0.00 0.00 0.00 67 1007.9
20260504045812 51 177 5.0 11.0 0.00 0.00 0.00 67 1007.6
20260504045735 51 224 6.0 11.0 0.00 0.00 0.00 67 1007.6
20260504045706 51 226 7.0 11.0 0.00 0.00 0.00 67 1007.9
20260504045601 51 275 7.0 11.0 0.00 0.00 0.00 67 1007.9
20260504045453 51 229 5.0 13.0 0.00 0.00 0.00 67 1007.9
20260504045349 51 219 2.0 13.0 0.00 0.00 0.00 67 1007.9
20260504045243 51 220 6.0 15.0 0.00 0.00 0.00 67 1007.9
20260504045226 51 203 7.0 15.0 0.00 0.00 0.00 67 1007.9
20260504045136 51 224 6.0 15.0 0.00 0.00 0.00 67 1007.9
20260504045030 51 264 8.0 15.0 0.00 0.00 0.00 66 1007.9
20260504044924 51 146 4.0 15.0 0.00 0.00 0.00 67 1007.9
20260504044818 51 246 6.0 15.0 0.00 0.00 0.00 67 1007.9
20260504044718 51 228 3.0 15.0 0.00 0.00 0.00 67 1007.9
20260504044712 51 111 2.0 15.0 0.00 0.00 0.00 67 1007.9
20260504044606 51 221 5.0 15.0 0.00 0.00 0.00 67 1007.9
20260504044501 51 182 6.0 15.0 0.00 0.00 0.00 66 1007.9
20260504044355 51 192 4.0 15.0 0.00 0.00 0.00 66 1007.9
20260504044249 51 191 3.0 13.0 0.00 0.00 0.00 66 1007.9
20260504044212 51 238 9.0 13.0 0.00 0.00 0.00 66 1007.9
20260504044143 51 214 7.0 13.0 0.00 0.00 0.00 66 1007.9
20260504044037 51 235 9.0 21.0 0.00 0.00 0.00 66 1007.9
20260504043931 51 239 6.0 21.0 0.00 0.00 0.00 67 1007.9
20260504043826 51 286 4.0 21.0 0.00 0.00 0.00 67 1007.9
20260504043733 51 191 2.0 21.0 0.00 0.00 0.00 67 1007.9
20260504043705 51 104 2.0 21.0 0.00 0.00 0.00 67 1007.9
20260504043615 51 187 7.0 21.0 0.00 0.00 0.00 66 1007.9
20260504043508 51 193 9.0 21.0 0.00 0.00 0.00 66 1007.9
20260504043403 51 225 4.0 21.0 0.00 0.00 0.00 66 1007.9
20260504043257 51 238 8.0 21.0 0.00 0.00 0.00 66 1007.9
20260504043158 51 224 5.0 21.0 0.00 0.00 0.00 66 1007.9
20260504043152 51 223 5.0 21.0 0.00 0.00 0.00 66 1007.9
20260504043046 51 184 15.0 21.0 0.00 0.00 0.00 66 1007.9
20260504042939 51 191 4.0 15.0 0.00 0.00 0.00 66 1007.9
20260504042833 51 236 6.0 15.0 0.00 0.00 0.00 66 1007.9
20260504042728 51 206 6.0 15.0 0.00 0.00 0.00 66 1007.9
20260504042651 51 203 12.0 15.0 0.00 0.00 0.00 66 1007.9
20260504042622 51 217 6.0 15.0 0.00 0.00 0.00 66 1007.9
20260504042517 51 203 8.0 15.0 0.00 0.00 0.00 66 1007.9
20260504042411 51 227 5.0 16.0 0.00 0.00 0.00 66 1008.3
20260504042306 51 221 7.0 16.0 0.00 0.00 0.00 66 1008.3
20260504042142 51 195 5.0 16.0 0.00 0.00 0.00 66 1008.3
20260504042051 51 232 6.0 16.0 0.00 0.00 0.00 67 1008.3
20260504041947 51 189 4.0 16.0 0.00 0.00 0.00 66 1008.3
20260504041841 51 185 6.0 16.0 0.00 0.00 0.00 66 1007.9
20260504041735 51 192 6.0 16.0 0.00 0.00 0.00 66 1008.3
20260504041646 51 234 2.0 16.0 0.00 0.00 0.00 66 1008.3
20260504041641 51 234 2.0 16.0 0.00 0.00 0.00 66 1007.9
20260504041524 51 214 6.0 16.0 0.00 0.00 0.00 66 1007.9
20260504041430 51 244 9.0 17.0 0.00 0.00 0.00 66 1008.3
20260504041311 51 221 6.0 17.0 0.00 0.00 0.00 66 1007.9
20260504041205 51 191 7.0 17.0 0.00 0.00 0.00 66 1008.3
20260504041129 51 173 8.0 17.0 0.00 0.00 0.00 66 1007.9
20260504041101 51 184 5.0 17.0 0.00 0.00 0.00 66 1007.9
20260504040955 51 213 5.0 17.0 0.00 0.00 0.00 66 1008.3
20260504040848 51 226 6.0 17.0 0.00 0.00 0.00 66 1007.9
20260504040743 51 219 8.0 17.0 0.00 0.00 0.00 66 1007.9
20260504040637 51 224 6.0 17.0 0.00 0.00 0.00 66 1008.3
20260504040621 51 195 4.0 17.0 0.00 0.00 0.00 66 1008.3
20260504040531 51 212 9.0 17.0 0.00 0.00 0.00 66 1008.3
20260504040425 51 196 2.0 16.0 0.00 0.00 0.00 66 1008.3
20260504040320 51 229 4.0 16.0 0.00 0.00 0.00 66 1008.3
20260504040214 51 210 9.0 16.0 0.00 0.00 0.00 66 1007.9
20260504040114 51 214 4.0 16.0 0.00 0.00 0.00 66 1008.3
20260504040108 51 217 5.0 16.0 0.00 0.00 0.00 66 1008.3
20260504040002 51 229 5.0 16.0 0.00 0.00 0.00 66 1008.3
20260504035855 51 189 6.0 16.0 0.00 0.00 0.00 66 1008.3
20260504035749 51 198 11.0 16.0 0.00 0.00 0.00 66 1008.3
20260504035644 51 214 9.0 16.0 0.00 0.00 0.00 66 1008.3
20260504035605 51 234 10.0 16.0 0.00 0.00 0.00 66 1008.3
20260504035537 51 212 12.0 16.0 0.00 0.00 0.00 66 1008.3
20260504035431 51 195 7.0 15.0 0.00 0.00 0.00 66 1008.3
20260504035326 51 195 7.0 17.0 0.00 0.00 0.00 66 1008.3
20260504035220 51 215 5.0 17.0 0.00 0.00 0.00 66 1008.3
20260504035114 51 193 9.0 17.0 0.00 0.00 0.00 66 1008.6
20260504035059 51 176 11.0 17.0 0.00 0.00 0.00 66 1008.6
20260504035008 51 157 8.0 17.0 0.00 0.00 0.00 67 1007.9
20260504034902 51 216 6.0 17.0 0.00 0.00 0.00 66 1008.3
20260504034757 51 201 4.0 17.0 0.00 0.00 0.00 66 1008.3
20260504034650 51 218 8.0 17.0 0.00 0.00 0.00 66 1008.6
20260504034550 51 241 5.0 17.0 0.00 0.00 0.00 67 1008.3
20260504034543 51 190 4.0 17.0 0.00 0.00 0.00 67 1008.3
20260504034437 51 228 7.0 17.0 0.00 0.00 0.00 67 1008.6
20260504034332 51 232 7.0 11.0 0.00 0.00 0.00 67 1008.3
20260504034226 51 304 6.0 11.0 0.00 0.00 0.00 67 1008.6
20260504034121 51 232 4.0 11.0 0.00 0.00 0.00 67 1008.3
20260504034043 51 204 1.0 11.0 0.00 0.00 0.00 67 1008.3
20260504034013 51 161 7.0 11.0 0.00 0.00 0.00 67 1008.3
20260504033909 51 219 6.0 11.0 0.00 0.00 0.00 68 1008.3
20260504033802 51 194 5.0 11.0 0.00 0.00 0.00 67 1008.3
20260504033656 51 217 9.0 13.0 0.00 0.00 0.00 67 1008.3
20260504033535 51 203 7.0 13.0 0.00 0.00 0.00 68 1008.3
20260504033445 51 202 4.0 13.0 0.00 0.00 0.00 68 1008.3
20260504033339 51 184 5.0 13.0 0.00 0.00 0.00 67 1008.3
20260504033233 51 188 5.0 13.0 0.00 0.00 0.00 67 1008.3
20260504033128 51 217 6.0 13.0 0.00 0.00 0.00 67 1008.6
20260504033022 52 110 4.0 13.0 0.00 0.00 0.00 67 1008.3
20260504032916 52 209 4.0 13.0 0.00 0.00 0.00 67 1008.6
20260504032810 52 231 8.0 13.0 0.00 0.00 0.00 67 1008.3
20260504032704 52 214 9.0 13.0 0.00 0.00 0.00 67 1008.3
20260504032559 52 216 6.0 13.0 0.00 0.00 0.00 67 1008.6
20260504032521 52 186 5.0 13.0 0.00 0.00 0.00 67 1008.6
20260504032452 52 180 10.0 13.0 0.00 0.00 0.00 67 1008.6
20260504032347 52 196 6.0 15.0 0.00 0.00 0.00 67 1008.6
20260504032240 52 224 7.0 15.0 0.00 0.00 0.00 67 1008.6
20260504032136 52 218 5.0 15.0 0.00 0.00 0.00 66 1008.3
20260504032030 52 206 7.0 15.0 0.00 0.00 0.00 66 1008.6
20260504032013 52 193 7.0 15.0 0.00 0.00 0.00 66 1008.6
20260504031922 52 191 9.0 15.0 0.00 0.00 0.00 66 1008.6
20260504031816 52 207 8.0 15.0 0.00 0.00 0.00 66 1008.6
20260504031711 52 236 6.0 15.0 0.00 0.00 0.00 66 1008.6
20260504031623 53 268 6.0 11.0 0.00 0.00 0.00 64 1009.0
20260504031619 52 191 9.0 14.0 0.00 0.00 0.00 66 1008.6
20260504031615 52 169 5.0 10.0 0.00 0.00 0.00 66 1008.6
20260504031609 53 216 4.0 13.0 0.00 0.00 0.00 66 1009.0
20260504031605 52 185 7.0 15.0 0.00 0.00 0.00 66 1008.6
20260504031556 53 179 4.0 13.0 0.00 0.00 0.00 65 1009.0
20260504031552 53 210 9.0 13.0 0.00 0.00 0.00 65 1009.0
20260504031547 53 201 2.0 11.0 0.00 0.00 0.00 65 1009.0
20260504031543 53 224 4.0 15.0 0.00 0.00 0.00 64 1009.0
20260504031539 53 187 9.0 11.0 0.00 0.00 0.00 64 1009.0
20260504031533 52 229 6.0 15.0 0.00 0.00 0.00 66 1008.6
20260504031528 52 201 7.0 15.0 0.00 0.00 0.00 66 1008.6
20260504031520 52 192 7.0 15.0 0.00 0.00 0.00 66 1008.6
20260504031258 52 240 5.0 15.0 0.00 0.00 0.00 66 1009.0
20260504031249 52 199 10.0 15.0 0.00 0.00 0.00 66 1008.6
20260504031241 52 187 8.0 17.0 0.00 0.00 0.00 66 1008.6
20260504031020 52 183 7.0 17.0 0.00 0.00 0.00 67 1008.6
20260504031016 52 215 6.0 17.0 0.00 0.00 0.00 67 1008.6
20260504031007 52 227 5.0 17.0 0.00 0.00 0.00 67 1008.6
20260504030743 52 230 2.0 17.0 0.00 0.00 0.00 67 1008.6
20260504030734 52 167 4.0 17.0 0.00 0.00 0.00 67 1008.6
20260504030513 52 206 7.0 17.0 0.00 0.00 0.00 66 1009.0
20260504030502 52 225 5.0 17.0 0.00 0.00 0.00 67 1009.0
20260504030459 52 155 5.0 17.0 0.00 0.00 0.00 66 1008.6
20260504030450 52 125 4.0 17.0 0.00 0.00 0.00 67 1008.6
20260504030227 52 172 6.0 17.0 0.00 0.00 0.00 66 1009.0
20260504030218 52 214 8.0 14.0 0.00 0.00 0.00 66 1008.6
20260504025955 52 191 9.0 14.0 0.00 0.00 0.00 66 1008.6
20260504025946 52 217 6.0 14.0 0.00 0.00 0.00 66 1008.6
20260504025938 52 236 8.0 11.0 0.00 0.00 0.00 66 1008.6
20260504025715 52 233 8.0 10.0 0.00 0.00 0.00 67 1008.6
20260504025706 52 205 4.0 10.0 0.00 0.00 0.00 67 1008.6
20260504025444 52 220 5.0 10.0 0.00 0.00 0.00 66 1009.0
20260504025435 52 225 4.0 14.0 0.00 0.00 0.00 67 1008.6
20260504025216 52 58 7.0 14.0 0.00 0.00 0.00 66 1008.6
20260504025211 52 210 6.0 14.0 0.00 0.00 0.00 67 1008.6
20260504025202 52 185 3.0 14.0 0.00 0.00 0.00 66 1008.6
20260504025154 52 149 7.0 14.0 0.00 0.00 0.00 66 1008.6
20260504024932 52 142 3.0 14.0 0.00 0.00 0.00 66 1008.6
20260504024923 53 234 6.0 14.0 0.00 0.00 0.00 66 1009.0
20260504024704 53 186 5.0 14.0 0.00 0.00 0.00 66 1009.0
20260504024655 53 186 4.0 14.0 0.00 0.00 0.00 66 1009.0
20260504024432 53 189 6.0 14.0 0.00 0.00 0.00 66 1009.0
20260504024428 53 177 6.0 14.0 0.00 0.00 0.00 66 1009.0
20260504024419 53 171 5.0 13.0 0.00 0.00 0.00 66 1009.0
20260504024411 53 221 4.0 13.0 0.00 0.00 0.00 66 1009.0
20260504024148 53 241 7.0 13.0 0.00 0.00 0.00 66 1009.0
20260504024139 53 234 6.0 13.0 0.00 0.00 0.00 65 1009.0
20260504023917 53 249 6.0 13.0 0.00 0.00 0.00 66 1009.0
20260504023909 53 218 7.0 13.0 0.00 0.00 0.00 66 1009.0
20260504023649 53 234 3.0 13.0 0.00 0.00 0.00 65 1009.0
20260504023640 53 206 8.0 13.0 0.00 0.00 0.00 65 1009.0
20260504023632 53 183 5.0 13.0 0.00 0.00 0.00 65 1009.0
20260504023410 53 208 9.0 13.0 0.00 0.00 0.00 65 1009.0
20260504023401 53 216 4.0 13.0 0.00 0.00 0.00 65 1009.0
20260504023139 53 212 4.0 13.0 0.00 0.00 0.00 65 1009.0
20260504023130 53 253 4.0 13.0 0.00 0.00 0.00 65 1009.0
20260504022907 53 199 4.0 13.0 0.00 0.00 0.00 66 1009.0
20260504022858 53 217 3.0 13.0 0.00 0.00 0.00 65 1009.3
20260504022849 53 216 6.0 13.0 0.00 0.00 0.00 65 1009.3
20260504022626 53 225 8.0 11.0 0.00 0.00 0.00 65 1009.0
20260504022618 53 195 3.0 11.0 0.00 0.00 0.00 65 1009.0
20260504022356 53 224 6.0 11.0 0.00 0.00 0.00 65 1009.3
20260504022347 53 169 9.0 11.0 0.00 0.00 0.00 65 1009.0
20260504022122 53 185 4.0 11.0 0.00 0.00 0.00 65 1009.0
20260504022114 53 221 8.0 11.0 0.00 0.00 0.00 65 1009.0
20260504022105 53 180 7.0 11.0 0.00 0.00 0.00 65 1009.0
20260504021844 53 217 4.0 11.0 0.00 0.00 0.00 65 1009.0
20260504021835 53 235 6.0 11.0 0.00 0.00 0.00 65 1009.0
20260504021612 53 205 5.0 15.0 0.00 0.00 0.00 64 1009.0
20260504021603 53 221 4.0 15.0 0.00 0.00 0.00 64 1009.0
20260504021340 53 224 4.0 15.0 0.00 0.00 0.00 64 1009.0
20260504021331 53 193 5.0 15.0 0.00 0.00 0.00 64 1009.0
20260504021323 53 158 8.0 15.0 0.00 0.00 0.00 64 1009.0
20260504021059 53 216 4.0 15.0 0.00 0.00 0.00 64 1009.0
20260504021050 53 102 5.0 15.0 0.00 0.00 0.00 64 1009.0
20260504021039 53 224 8.0 15.0 0.00 0.00 0.00 64 1009.0
20260504020821 53 242 2.0 15.0 0.00 0.00 0.00 64 1009.0
20260504020812 53 188 9.0 15.0 0.00 0.00 0.00 64 1009.0
20260504020804 53 223 6.0 13.0 0.00 0.00 0.00 64 1009.0
20260504020755 53 215 5.0 13.0 0.00 0.00 0.00 64 1009.0
20260504020746 53 187 9.0 11.0 0.00 0.00 0.00 64 1009.0
20260504020312 53 236 6.0 11.0 0.00 0.00 0.00 65 1009.0
20260504020303 53 214 5.0 11.0 0.00 0.00 0.00 64 1009.0
20260504020040 53 234 3.0 11.0 0.00 0.00 0.00 64 1009.3
20260504020031 53 169 6.0 11.0 0.00 0.00 0.00 64 1008.6
20260504015806 53 268 6.0 11.0 0.00 0.00 0.00 64 1009.0
20260504015659 53 241 4.0 11.0 0.00 0.00 0.00 64 1009.0
20260504015554 53 216 8.0 11.0 0.00 0.00 0.00 65 1008.6
20260504015537 53 195 4.0 9.0 0.00 0.00 0.00 64 1009.0
20260504015533 53 198 4.0 9.0 0.00 0.00 0.00 64 1009.0
20260504015524 53 206 4.0 9.0 0.00 0.00 0.00 64 1009.0
20260504015236 53 206 4.0 11.0 0.00 0.00 0.00 64 1009.3
20260504015130 53 243 4.0 11.0 0.00 0.00 0.00 64 1009.0
20260504015024 53 207 5.0 11.0 0.00 0.00 0.00 65 1009.0
20260504014918 53 182 5.0 11.0 0.00 0.00 0.00 64 1009.0
20260504014812 53 189 3.0 11.0 0.00 0.00 0.00 64 1008.6
20260504014756 53 215 3.0 11.0 0.00 0.00 0.00 64 1008.6
20260504014706 53 215 4.0 11.0 0.00 0.00 0.00 64 1009.0
20260504014601 53 221 6.0 11.0 0.00 0.00 0.00 64 1009.0
20260504014454 53 208 4.0 11.0 0.00 0.00 0.00 64 1009.0
20260504014349 53 229 6.0 11.0 0.00 0.00 0.00 64 1009.0
20260504014249 53 212 10.0 11.0 0.00 0.00 0.00 64 1009.0
20260504014243 53 197 6.0 10.0 0.00 0.00 0.00 64 1009.0
20260504014137 53 214 2.0 13.0 0.00 0.00 0.00 64 1009.0
20260504014031 53 218 3.0 13.0 0.00 0.00 0.00 64 1009.0
20260504013925 53 212 6.0 13.0 0.00 0.00 0.00 63 1008.6
20260504013819 53 191 3.0 13.0 0.00 0.00 0.00 64 1009.0
20260504013741 53 210 5.0 13.0 0.00 0.00 0.00 64 1009.0
20260504013713 53 160 5.0 13.0 0.00 0.00 0.00 64 1009.0
20260504013608 53 175 6.0 13.0 0.00 0.00 0.00 63 1009.0
20260504013501 53 237 6.0 13.0 0.00 0.00 0.00 63 1009.0
20260504013357 53 217 3.0 13.0 0.00 0.00 0.00 63 1008.6
20260504013250 53 239 5.0 13.0 0.00 0.00 0.00 63 1008.6
20260504013235 53 209 9.0 13.0 0.00 0.00 0.00 63 1008.6
20260504013145 53 211 4.0 9.0 0.00 0.00 0.00 64 1009.0
20260504013038 53 239 5.0 9.0 0.00 0.00 0.00 64 1009.0
20260504012945 53 205 3.0 9.0 0.00 0.00 0.00 63 1009.0
20260504012827 53 233 6.0 9.0 0.00 0.00 0.00 63 1009.0
20260504012722 53 241 5.0 9.0 0.00 0.00 0.00 63 1009.0
20260504012616 53 206 3.0 9.0 0.00 0.00 0.00 63 1009.0
20260504012510 54 161 7.0 9.0 0.00 0.00 0.00 63 1008.6
20260504012404 54 139 2.0 9.0 0.00 0.00 0.00 63 1008.6
20260504012258 54 210 5.0 8.0 0.00 0.00 0.00 63 1009.0
20260504012220 54 171 2.0 8.0 0.00 0.00 0.00 63 1009.0
20260504012152 54 219 5.0 8.0 0.00 0.00 0.00 63 1009.0
20260504012046 54 203 6.0 9.0 0.00 0.00 0.00 63 1009.0
20260504011940 54 234 2.0 9.0 0.00 0.00 0.00 62 1009.0
20260504011835 54 167 4.0 9.0 0.00 0.00 0.00 62 1008.6
20260504011729 54 196 4.0 9.0 0.00 0.00 0.00 63 1009.0
20260504011714 54 234 2.0 9.0 0.00 0.00 0.00 63 1009.0
20260504011624 54 182 3.0 9.0 0.00 0.00 0.00 62 1009.0
20260504011517 54 241 4.0 9.0 0.00 0.00 0.00 62 1009.0
20260504011424 54 233 4.0 9.0 0.00 0.00 0.00 62 1009.0
20260504011306 54 215 3.0 9.0 0.00 0.00 0.00 62 1009.0
20260504011206 54 213 4.0 10.0 0.00 0.00 0.00 62 1009.0
20260504011159 54 232 3.0 10.0 0.00 0.00 0.00 62 1009.0
20260504011052 54 215 4.0 10.0 0.00 0.00 0.00 62 1009.0
20260504010947 54 196 3.0 10.0 0.00 0.00 0.00 62 1009.0
20260504010841 54 242 3.0 10.0 0.00 0.00 0.00 61 1009.0
20260504010735 54 221 6.0 10.0 0.00 0.00 0.00 61 1009.0
20260504010658 54 214 4.0 10.0 0.00 0.00 0.00 61 1009.0
20260504010629 54 226 4.0 10.0 0.00 0.00 0.00 61 1009.0
20260504010537 55 220 3.0 10.0 0.00 0.00 0.00 61 1009.0
20260504010418 55 219 5.0 10.0 0.00 0.00 0.00 61 1009.0
20260504010312 55 272 4.0 10.0 0.00 0.00 0.00 61 1009.0
20260504010207 55 237 6.0 9.0 0.00 0.00 0.00 61 1009.0
20260504010152 55 239 5.0 9.0 0.00 0.00 0.00 61 1009.0
20260504010111 55 233 4.0 10.0 0.00 0.00 0.00 61 1009.0
20260504005956 55 294 4.0 11.0 0.00 0.00 0.00 61 1009.0
20260504005849 55 244 3.0 13.0 0.00 0.00 0.00 60 1009.0
20260504005744 55 225 2.0 13.0 0.00 0.00 0.00 60 1008.6
20260504005645 55 242 5.0 13.0 0.00 0.00 0.00 60 1009.0
20260504005638 55 235 4.0 13.0 0.00 0.00 0.00 60 1009.0
20260504005532 55 226 6.0 13.0 0.00 0.00 0.00 60 1009.0
20260504005427 55 206 4.0 13.0 0.00 0.00 0.00 60 1009.0
20260504005320 55 202 4.0 13.0 0.00 0.00 0.00 60 1009.0
20260504005214 55 280 5.0 16.0 0.00 0.00 0.00 59 1009.0
20260504005137 55 223 7.0 16.0 0.00 0.00 0.00 59 1009.0
20260504005108 55 194 6.0 16.0 0.00 0.00 0.00 59 1008.6
20260504005002 55 193 7.0 16.0 0.00 0.00 0.00 59 1009.0
20260504004857 55 182 4.0 16.0 0.00 0.00 0.00 59 1009.0
20260504004751 55 255 4.0 16.0 0.00 0.00 0.00 60 1009.0
20260504004629 55 227 8.0 17.0 0.00 0.00 0.00 59 1009.0
20260504004540 55 230 7.0 17.0 0.00 0.00 0.00 59 1009.0
20260504004433 55 227 9.0 17.0 0.00 0.00 0.00 59 1009.0
20260504004328 55 245 9.0 17.0 0.00 0.00 0.00 59 1008.6
20260504004221 56 228 10.0 17.0 0.00 0.00 0.00 58 1009.0
20260504004116 56 222 7.0 17.0 0.00 0.00 0.00 59 1008.6
20260504004010 56 230 6.0 17.0 0.00 0.00 0.00 58 1008.6
20260504003905 56 230 10.0 17.0 0.00 0.00 0.00 58 1009.0
20260504003759 56 241 11.0 17.0 0.00 0.00 0.00 58 1009.0
20260504003653 56 290 9.0 17.0 0.00 0.00 0.00 57 1009.0
20260504003616 56 240 12.0 17.0 0.00 0.00 0.00 57 1009.0
20260504003548 56 230 11.0 17.0 0.00 0.00 0.00 57 1009.0
20260504003442 56 235 8.0 17.0 0.00 0.00 0.00 57 1008.6
20260504003335 57 254 10.0 17.0 0.00 0.00 0.00 57 1008.6
20260504003229 57 214 11.0 15.0 0.00 0.00 0.00 57 1008.6
20260504003124 57 243 8.0 15.0 0.00 0.00 0.00 57 1008.6
20260504003108 57 231 7.0 15.0 0.00 0.00 0.00 57 1008.6
20260504003017 57 175 7.0 15.0 0.00 0.00 0.00 57 1008.6
20260504002912 57 247 7.0 15.0 0.00 0.00 0.00 56 1008.6
20260504002806 57 220 8.0 15.0 0.00 0.00 0.00 56 1008.6
20260504002700 57 239 5.0 15.0 0.00 0.00 0.00 56 1008.3
20260504002601 57 262 6.0 15.0 0.00 0.00 0.00 55 1008.6
20260504002554 57 185 7.0 15.0 0.00 0.00 0.00 55 1008.6
20260504002448 57 204 6.0 15.0 0.00 0.00 0.00 55 1008.6
20260504002342 57 28 5.0 15.0 0.00 0.00 0.00 55 1008.6
20260504002236 57 250 4.0 15.0 0.00 0.00 0.00 55 1008.6
20260504002131 57 197 6.0 15.0 0.00 0.00 0.00 55 1008.3
20260504002054 57 203 6.0 15.0 0.00 0.00 0.00 55 1008.3
20260504002025 57 219 7.0 15.0 0.00 0.00 0.00 55 1008.3
20260504001919 57 196 13.0 15.0 0.00 0.00 0.00 54 1008.6
20260504001814 57 270 8.0 14.0 0.00 0.00 0.00 54 1008.3
20260504001708 57 269 8.0 16.0 0.00 0.00 0.00 54 1008.3
20260504001602 58 177 5.0 16.0 0.00 0.00 0.00 54 1008.3
20260504001547 58 271 5.0 16.0 0.00 0.00 0.00 54 1008.3
20260504001454 58 241 4.0 16.0 0.00 0.00 0.00 54 1008.3
20260504001402 58 292 5.0 16.0 0.00 0.00 0.00 53 1008.6
20260504001240 58 206 4.0 16.0 0.00 0.00 0.00 53 1008.6
20260504001133 58 217 6.0 16.0 0.00 0.00 0.00 53 1008.3
20260504001045 58 238 8.0 16.0 0.00 0.00 0.00 53 1008.3
20260504001028 58 219 5.0 16.0 0.00 0.00 0.00 53 1008.6
20260504000922 58 265 6.0 16.0 0.00 0.00 0.00 53 1008.6
20260504000816 58 185 10.0 16.0 0.00 0.00 0.00 53 1008.3
20260504000710 58 215 6.0 15.0 0.00 0.00 0.00 53 1008.3
20260504000604 58 244 5.0 15.0 0.00 0.00 0.00 53 1008.3
20260504000538 58 267 7.0 15.0 0.00 0.00 0.00 53 1008.3
20260504000459 58 226 6.0 15.0 0.00 0.00 0.00 53 1008.3
20260504000354 58 219 10.0 15.0 0.00 0.00 0.00 52 1008.3
20260504000248 58 232 6.0 15.0 0.00 0.00 0.00 53 1008.3
20260504000139 58 282 9.0 15.0 0.00 0.00 0.00 53 1008.3
20260504000033 58 238 1.0 15.0 0.00 0.00 0.00 53 1007.9
20260503235928 58 218 3.0 15.0 0.00 0.00 0.00 53 1008.3
20260503235822 58 277 6.0 11.0 0.00 0.00 0.00 53 1008.3
20260503235716 58 213 4.0 11.0 0.00 0.00 0.00 52 1008.3
20260503235611 58 201 4.0 11.0 0.00 0.00 0.00 52 1008.3
20260503235522 58 250 2.0 11.0 0.00 0.00 0.00 52 1007.9
20260503235505 58 248 3.0 11.0 0.00 0.00 0.00 52 1007.9
20260503235359 58 237 4.0 11.0 0.00 0.00 0.00 52 1007.9
20260503235253 58 203 5.0 14.0 0.00 0.00 0.00 52 1008.3
20260503235147 58 232 5.0 14.0 0.00 0.00 0.00 52 1008.3
20260503235041 58 253 2.0 14.0 0.00 0.00 0.00 52 1008.3
20260503235016 58 236 4.0 14.0 0.00 0.00 0.00 51 1008.3
20260503234936 58 221 5.0 14.0 0.00 0.00 0.00 51 1008.3
20260503234843 58 238 7.0 14.0 0.00 0.00 0.00 51 1007.9
20260503234723 58 105 3.0 14.0 0.00 0.00 0.00 51 1007.9
20260503234617 58 214 6.0 14.0 0.00 0.00 0.00 51 1008.3
20260503234511 58 271 6.0 14.0 0.00 0.00 0.00 51 1007.9
20260503234406 58 208 8.0 14.0 0.00 0.00 0.00 51 1008.3
20260503234300 58 202 8.0 14.0 0.00 0.00 0.00 51 1008.3
20260503234157 58 284 5.0 11.0 0.00 0.00 0.00 51 1007.9
20260503234048 58 270 4.0 11.0 0.00 0.00 0.00 51 1008.3
20260503234000 58 220 3.0 11.0 0.00 0.00 0.00 51 1008.3
20260503233942 58 210 4.0 11.0 0.00 0.00 0.00 51 1008.3
20260503233838 58 234 4.0 11.0 0.00 0.00 0.00 50 1008.3
20260503233731 58 273 8.0 11.0 0.00 0.00 0.00 51 1007.9
20260503233625 58 246 6.0 11.0 0.00 0.00 0.00 50 1007.9
20260503233520 58 202 5.0 15.0 0.00 0.00 0.00 50 1007.9
20260503233452 58 219 5.0 15.0 0.00 0.00 0.00 51 1007.9
20260503233413 58 258 7.0 18.0 0.00 0.00 0.00 50 1007.9
20260503233307 59 241 5.0 18.0 0.00 0.00 0.00 51 1008.3
20260503233201 59 248 2.0 18.0 0.00 0.00 0.00 51 1008.3
20260503233056 59 250 7.0 18.0 0.00 0.00 0.00 49 1008.3
20260503232949 59 217 8.0 18.0 0.00 0.00 0.00 49 1008.3
20260503232844 59 190 6.0 18.0 0.00 0.00 0.00 49 1008.3
20260503232738 59 172 7.0 18.0 0.00 0.00 0.00 49 1008.3
20260503232633 59 250 9.0 24.0 0.00 0.00 0.00 49 1007.9
20260503232526 59 201 10.0 24.0 0.00 0.00 0.00 49 1008.3
20260503232438 59 270 11.0 24.0 0.00 0.00 0.00 49 1008.3
20260503232421 59 235 6.0 24.0 0.00 0.00 0.00 49 1008.3
20260503232315 59 222 4.0 24.0 0.00 0.00 0.00 50 1008.3
20260503232209 59 125 6.0 24.0 0.00 0.00 0.00 50 1008.3
20260503232104 59 217 4.0 24.0 0.00 0.00 0.00 49 1008.3
20260503231958 59 228 4.0 24.0 0.00 0.00 0.00 49 1008.3
20260503231932 59 215 8.0 24.0 0.00 0.00 0.00 49 1008.3
20260503231852 59 265 6.0 24.0 0.00 0.00 0.00 49 1008.3
20260503231747 59 233 6.0 24.0 0.00 0.00 0.00 49 1008.3
20260503231641 59 208 5.0 16.0 0.00 0.00 0.00 49 1008.3
20260503231535 59 228 0.0 16.0 0.00 0.00 0.00 49 1008.3
20260503231441 59 237 1.0 16.0 0.00 0.00 0.00 49 1008.3
20260503231323 59 197 6.0 16.0 0.00 0.00 0.00 48 1008.3
20260503231217 59 258 10.0 16.0 0.00 0.00 0.00 48 1008.3
20260503231111 59 219 6.0 16.0 0.00 0.00 0.00 48 1008.3
20260503231018 59 226 5.0 16.0 0.00 0.00 0.00 48 1008.3
20260503230917 59 205 5.0 16.0 0.00 0.00 0.00 49 1008.6
20260503230900 60 239 5.0 16.0 0.00 0.00 0.00 48 1008.6
20260503230755 60 255 6.0 15.0 0.00 0.00 0.00 48 1008.6
20260503230648 60 309 10.0 15.0 0.00 0.00 0.00 48 1007.9
20260503230542 60 239 7.0 14.0 0.00 0.00 0.00 48 1008.3
20260503230436 60 218 10.0 17.0 0.00 0.00 0.00 47 1008.3
20260503230410 60 257 6.0 17.0 0.00 0.00 0.00 48 1008.3
20260503230331 60 223 9.0 17.0 0.00 0.00 0.00 47 1008.3
20260503230225 60 220 10.0 17.0 0.00 0.00 0.00 47 1008.6
20260503230120 60 246 9.0 17.0 0.00 0.00 0.00 47 1008.3
20260503230016 60 237 9.0 17.0 0.00 0.00 0.00 47 1008.6
20260503225906 60 235 10.0 17.0 0.00 0.00 0.00 47 1008.3
20260503225801 60 220 8.0 17.0 0.00 0.00 0.00 47 1008.6
20260503225656 60 239 5.0 17.0 0.00 0.00 0.00 47 1008.6
20260503225550 60 210 10.0 17.0 0.00 0.00 0.00 47 1008.6
20260503225443 60 229 7.0 15.0 0.00 0.00 0.00 47 1008.3
20260503225356 60 206 7.0 15.0 0.00 0.00 0.00 47 1008.6
20260503225339 60 245 8.0 15.0 0.00 0.00 0.00 47 1008.6
20260503225232 60 260 8.0 15.0 0.00 0.00 0.00 46 1008.6
20260503225126 60 232 6.0 15.0 0.00 0.00 0.00 47 1008.6
20260503225020 60 239 6.0 15.0 0.00 0.00 0.00 48 1008.6
20260503224915 60 232 6.0 15.0 0.00 0.00 0.00 47 1008.6
20260503224848 60 208 6.0 15.0 0.00 0.00 0.00 47 1008.6
20260503224809 60 243 9.0 15.0 0.00 0.00 0.00 46 1008.6
20260503224704 60 149 8.0 15.0 0.00 0.00 0.00 47 1008.6
20260503224559 60 213 10.0 15.0 0.00 0.00 0.00 46 1008.6
20260503224451 60 184 8.0 17.0 0.00 0.00 0.00 47 1008.6
20260503224345 60 197 5.0 17.0 0.00 0.00 0.00 46 1008.3
20260503224240 60 226 7.0 17.0 0.00 0.00 0.00 46 1008.6
20260503224135 60 167 9.0 17.0 0.00 0.00 0.00 47 1008.6
20260503224028 60 248 5.0 17.0 0.00 0.00 0.00 46 1008.3
20260503223923 60 256 7.0 17.0 0.00 0.00 0.00 46 1008.6
20260503223834 60 234 8.0 17.0 0.00 0.00 0.00 47 1008.6
20260503223818 60 238 8.0 17.0 0.00 0.00 0.00 46 1008.6
20260503223711 60 209 7.0 17.0 0.00 0.00 0.00 46 1008.3
20260503223605 61 227 8.0 17.0 0.00 0.00 0.00 46 1008.6
20260503223502 61 235 13.0 15.0 0.00 0.00 0.00 45 1008.6
20260503223352 61 317 1.0 15.0 0.00 0.00 0.00 45 1008.3
20260503223325 61 121 7.0 15.0 0.00 0.00 0.00 45 1008.6
20260503223245 61 207 5.0 15.0 0.00 0.00 0.00 46 1008.6
20260503223140 61 237 9.0 15.0 0.00 0.00 0.00 46 1008.6
20260503223034 61 254 8.0 18.0 0.00 0.00 0.00 46 1008.6
20260503222928 61 256 9.0 18.0 0.00 0.00 0.00 45 1008.6
20260503222822 61 168 6.0 18.0 0.00 0.00 0.00 45 1008.6
20260503222716 61 233 8.0 18.0 0.00 0.00 0.00 45 1008.6
20260503222609 61 273 7.0 18.0 0.00 0.00 0.00 44 1008.3
20260503222504 61 240 6.0 18.0 0.00 0.00 0.00 45 1008.3
20260503222358 61 230 8.0 18.0 0.00 0.00 0.00 45 1008.6
20260503222309 61 209 6.0 18.0 0.00 0.00 0.00 46 1008.6
20260503222251 61 218 5.0 18.0 0.00 0.00 0.00 45 1008.6
20260503222146 61 168 6.0 18.0 0.00 0.00 0.00 45 1008.6
20260503222040 61 233 8.0 14.0 0.00 0.00 0.00 46 1008.6
20260503221934 61 228 7.0 13.0 0.00 0.00 0.00 45 1009.0
20260503221828 60 277 2.0 13.0 0.00 0.00 0.00 46 1008.6
20260503221802 60 235 5.0 13.0 0.00 0.00 0.00 46 1008.6
20260503221723 60 215 2.0 13.0 0.00 0.00 0.00 46 1008.6
20260503221617 60 196 4.0 13.0 0.00 0.00 0.00 45 1008.6
20260503221511 60 207 7.0 13.0 0.00 0.00 0.00 45 1008.6
20260503221406 60 195 2.0 16.0 0.00 0.00 0.00 46 1008.6
20260503221259 60 248 3.0 18.0 0.00 0.00 0.00 46 1008.6
20260503221154 60 206 3.0 18.0 0.00 0.00 0.00 46 1008.6
20260503221048 60 208 7.0 18.0 0.00 0.00 0.00 45 1008.6
20260503220942 60 250 4.0 18.0 0.00 0.00 0.00 46 1009.0
20260503220837 60 230 5.0 18.0 0.00 0.00 0.00 45 1008.6
20260503220749 60 250 4.0 18.0 0.00 0.00 0.00 46 1008.6
20260503220732 60 246 3.0 18.0 0.00 0.00 0.00 45 1008.6
20260503220628 60 267 8.0 18.0 0.00 0.00 0.00 44 1008.6
20260503220519 60 115 7.0 18.0 0.00 0.00 0.00 44 1008.6
20260503220414 61 258 9.0 18.0 0.00 0.00 0.00 44 1008.3
20260503220308 61 180 11.0 18.0 0.00 0.00 0.00 44 1009.0
20260503220242 61 236 7.0 18.0 0.00 0.00 0.00 44 1009.0
20260503220203 61 197 8.0 18.0 0.00 0.00 0.00 44 1009.0
20260503220103 61 239 6.0 18.0 0.00 0.00 0.00 45 1008.6
20260503215951 61 285 6.0 18.0 0.00 0.00 0.00 44 1008.6
20260503215846 61 154 6.0 18.0 0.00 0.00 0.00 44 1008.6
20260503215740 61 201 6.0 18.0 0.00 0.00 0.00 45 1008.6
20260503215635 61 169 11.0 18.0 0.00 0.00 0.00 44 1008.6
20260503215530 61 208 7.0 15.0 0.00 0.00 0.00 45 1008.3
20260503215424 61 234 11.0 15.0 0.00 0.00 0.00 44 1008.6
20260503215319 61 202 5.0 15.0 0.00 0.00 0.00 45 1008.6
20260503215229 61 251 6.0 15.0 0.00 0.00 0.00 44 1008.6
20260503215212 61 250 7.0 15.0 0.00 0.00 0.00 45 1008.6
20260503215104 61 236 7.0 15.0 0.00 0.00 0.00 45 1008.6
20260503214958 61 220 6.0 15.0 0.00 0.00 0.00 44 1008.6
20260503214852 62 203 2.0 19.0 0.00 0.00 0.00 44 1008.6
20260503214720 62 209 3.0 19.0 0.00 0.00 0.00 44 1008.3
20260503214642 62 206 9.0 19.0 0.00 0.00 0.00 44 1008.3
20260503214536 62 245 5.0 19.0 0.00 0.00 0.00 46 1008.6
20260503214430 62 227 4.0 19.0 0.00 0.00 0.00 44 1008.6
20260503214325 62 230 9.0 19.0 0.00 0.00 0.00 43 1008.6
20260503214219 61 230 5.0 19.0 0.00 0.00 0.00 45 1008.6
20260503214002 61 231 6.0 19.0 0.00 0.00 0.00 45 1008.6
20260503213857 61 188 10.0 18.0 0.00 0.00 0.00 44 1009.0
20260503213751 61 223 7.0 17.0 0.00 0.00 0.00 45 1009.0
20260503213645 61 267 2.0 17.0 0.00 0.00 0.00 45 1008.6
20260503213540 61 260 10.0 17.0 0.00 0.00 0.00 44 1009.0
20260503213512 61 214 14.0 17.0 0.00 0.00 0.00 44 1008.6
20260503213433 61 293 9.0 17.0 0.00 0.00 0.00 45 1009.0
20260503213327 61 240 4.0 17.0 0.00 0.00 0.00 45 1009.0
20260503213222 61 152 6.0 17.0 0.00 0.00 0.00 44 1008.6
20260503213114 61 246 9.0 17.0 0.00 0.00 0.00 45 1008.6
20260503213008 61 167 5.0 18.0 0.00 0.00 0.00 45 1009.0
20260503212902 61 170 9.0 18.0 0.00 0.00 0.00 44 1008.6
20260503212758 61 228 9.0 18.0 0.00 0.00 0.00 44 1008.6
20260503212651 61 189 11.0 18.0 0.00 0.00 0.00 44 1008.6
20260503212545 61 205 8.0 18.0 0.00 0.00 0.00 44 1008.6
20260503212457 61 197 10.0 18.0 0.00 0.00 0.00 44 1008.6
20260503212440 61 216 9.0 18.0 0.00 0.00 0.00 44 1008.6
20260503212334 61 232 11.0 18.0 0.00 0.00 0.00 44 1008.6
20260503212228 61 223 10.0 18.0 0.00 0.00 0.00 43 1008.6
20260503212123 61 234 15.0 18.0 0.00 0.00 0.00 43 1009.0
20260503212017 61 231 9.0 17.0 0.00 0.00 0.00 43 1008.6
20260503211951 61 197 10.0 17.0 0.00 0.00 0.00 44 1008.6
20260503211911 61 199 9.0 17.0 0.00 0.00 0.00 43 1008.6
20260503211806 61 229 7.0 17.0 0.00 0.00 0.00 43 1009.0
20260503211700 61 239 4.0 17.0 0.00 0.00 0.00 43 1008.6
20260503211554 61 189 9.0 17.0 0.00 0.00 0.00 43 1008.6
20260503211449 61 209 9.0 17.0 0.00 0.00 0.00 43 1008.6
20260503211344 61 204 9.0 17.0 0.00 0.00 0.00 43 1008.6
20260503211238 61 229 8.0 17.0 0.00 0.00 0.00 43 1009.0
20260503211132 61 265 8.0 17.0 0.00 0.00 0.00 43 1008.6
20260503211026 61 263 13.0 17.0 0.00 0.00 0.00 43 1008.6
20260503210938 61 257 5.0 14.0 0.00 0.00 0.00 44 1008.6
20260503210921 61 236 7.0 14.0 0.00 0.00 0.00 43 1008.6
20260503210815 61 215 5.0 14.0 0.00 0.00 0.00 43 1008.6
20260503210710 61 239 6.0 14.0 0.00 0.00 0.00 42 1008.6
20260503210604 62 224 6.0 14.0 0.00 0.00 0.00 42 1008.6
20260503210519 61 261 7.0 16.0 0.00 0.00 0.00 43 1009.0
20260503210514 62 230 5.0 21.0 0.00 0.00 0.00 42 1008.6
20260503210510 62 228 4.0 14.0 0.00 0.00 0.00 43 1008.6
20260503210506 62 249 7.0 15.0 0.00 0.00 0.00 41 1008.6
20260503210502 62 254 12.0 14.0 0.00 0.00 0.00 42 1008.3
20260503210451 62 269 8.0 13.0 0.00 0.00 0.00 42 1008.6
20260503210447 62 222 5.0 13.0 0.00 0.00 0.00 42 1008.6
20260503210438 62 286 5.0 14.0 0.00 0.00 0.00 42 1008.6
20260503210215 62 265 7.0 14.0 0.00 0.00 0.00 42 1008.6
20260503210206 62 264 4.0 14.0 0.00 0.00 0.00 42 1008.6
20260503210155 62 228 4.0 14.0 0.00 0.00 0.00 43 1008.6
20260503205935 62 220 4.0 14.0 0.00 0.00 0.00 42 1008.6
20260503205926 62 248 5.0 14.0 0.00 0.00 0.00 43 1008.6
20260503205703 62 231 6.0 18.0 0.00 0.00 0.00 42 1008.6
20260503205658 62 239 4.0 14.0 0.00 0.00 0.00 41 1008.6
20260503205649 62 207 7.0 15.0 0.00 0.00 0.00 41 1008.6
20260503205428 62 265 7.0 15.0 0.00 0.00 0.00 42 1008.6
20260503205419 62 236 4.0 15.0 0.00 0.00 0.00 42 1008.6
20260503205200 62 247 7.0 15.0 0.00 0.00 0.00 42 1008.6
20260503205151 62 270 2.0 15.0 0.00 0.00 0.00 44 1008.6
20260503205142 62 184 0.0 18.0 0.00 0.00 0.00 42 1008.6
20260503204920 62 240 3.0 18.0 0.00 0.00 0.00 42 1008.6
20260503204912 62 312 3.0 18.0 0.00 0.00 0.00 43 1008.3
20260503204647 62 233 6.0 18.0 0.00 0.00 0.00 42 1008.3
20260503204639 62 237 1.0 18.0 0.00 0.00 0.00 42 1008.6
20260503204628 62 249 3.0 18.0 0.00 0.00 0.00 42 1008.6
20260503204408 61 131 6.0 18.0 0.00 0.00 0.00 43 1008.6
20260503204400 61 240 5.0 18.0 0.00 0.00 0.00 43 1009.0
20260503204136 61 248 14.0 18.0 0.00 0.00 0.00 42 1008.6
20260503204128 61 223 4.0 16.0 0.00 0.00 0.00 43 1009.0
20260503203906 61 294 8.0 16.0 0.00 0.00 0.00 42 1009.0
20260503203858 62 255 8.0 16.0 0.00 0.00 0.00 43 1009.0
20260503203636 62 207 9.0 14.0 0.00 0.00 0.00 43 1009.0
20260503203632 62 178 6.0 16.0 0.00 0.00 0.00 43 1009.0
20260503203624 62 250 4.0 14.0 0.00 0.00 0.00 43 1008.6
20260503203615 62 230 6.0 14.0 0.00 0.00 0.00 43 1009.0
20260503203354 62 204 5.0 14.0 0.00 0.00 0.00 43 1008.6
20260503203345 62 292 7.0 14.0 0.00 0.00 0.00 42 1008.6
20260503203121 62 265 10.0 14.0 0.00 0.00 0.00 42 1009.0
20260503203112 62 234 5.0 21.0 0.00 0.00 0.00 42 1008.6
20260503203102 62 230 5.0 21.0 0.00 0.00 0.00 42 1008.6
20260503202841 62 197 6.0 21.0 0.00 0.00 0.00 42 1009.0
20260503202836 62 243 3.0 21.0 0.00 0.00 0.00 43 1008.6
20260503202827 62 270 8.0 21.0 0.00 0.00 0.00 42 1009.0
20260503202605 62 143 7.0 21.0 0.00 0.00 0.00 42 1009.0
20260503202556 62 264 1.0 21.0 0.00 0.00 0.00 42 1009.0
20260503202320 62 231 8.0 21.0 0.00 0.00 0.00 41 1009.0
20260503202215 62 231 7.0 21.0 0.00 0.00 0.00 42 1009.0
20260503202109 62 240 13.0 21.0 0.00 0.00 0.00 41 1009.0
20260503202003 62 199 9.0 19.0 0.00 0.00 0.00 41 1008.6
20260503201857 62 297 8.0 19.0 0.00 0.00 0.00 41 1008.6
20260503201830 62 232 7.0 19.0 0.00 0.00 0.00 41 1009.0
20260503201751 63 241 9.0 19.0 0.00 0.00 0.00 41 1009.0
20260503201646 63 207 7.0 15.0 0.00 0.00 0.00 41 1009.0
20260503201553 63 213 10.0 15.0 0.00 0.00 0.00 40 1008.6
20260503201435 63 221 9.0 15.0 0.00 0.00 0.00 40 1009.0
20260503201329 62 216 6.0 21.0 0.00 0.00 0.00 40 1009.0
20260503201223 62 235 5.0 21.0 0.00 0.00 0.00 42 1009.0
20260503201118 62 146 9.0 21.0 0.00 0.00 0.00 41 1008.6
20260503201012 61 193 4.0 22.0 0.00 0.00 0.00 42 1009.0
20260503200906 61 232 4.0 22.0 0.00 0.00 0.00 42 1008.6
20260503200818 61 214 4.0 22.0 0.00 0.00 0.00 41 1008.6
20260503200800 61 247 7.0 22.0 0.00 0.00 0.00 41 1008.6
20260503200654 61 233 5.0 22.0 0.00 0.00 0.00 42 1009.0
20260503200549 61 221 5.0 22.0 0.00 0.00 0.00 43 1009.0
20260503200445 61 225 9.0 22.0 0.00 0.00 0.00 41 1009.0
20260503200338 61 264 12.0 22.0 0.00 0.00 0.00 41 1009.0
20260503200311 61 193 10.0 22.0 0.00 0.00 0.00 41 1009.0
20260503200233 61 234 5.0 22.0 0.00 0.00 0.00 42 1009.0
20260503200127 62 174 10.0 22.0 0.00 0.00 0.00 41 1009.0
20260503200022 62 235 9.0 16.0 0.00 0.00 0.00 41 1009.0
20260503195916 62 248 7.0 16.0 0.00 0.00 0.00 41 1009.0
20260503195810 62 231 3.0 16.0 0.00 0.00 0.00 40 1009.0
20260503195704 62 247 7.0 16.0 0.00 0.00 0.00 41 1009.0
20260503195557 62 218 6.0 16.0 0.00 0.00 0.00 41 1009.0
20260503195451 62 250 6.0 16.0 0.00 0.00 0.00 41 1009.3
20260503195325 62 221 9.0 17.0 0.00 0.00 0.00 40 1009.0
20260503195259 62 227 6.0 17.0 0.00 0.00 0.00 41 1009.0
20260503195220 62 250 9.0 17.0 0.00 0.00 0.00 40 1009.0
20260503195115 62 228 5.0 17.0 0.00 0.00 0.00 41 1009.0
20260503195009 62 267 3.0 17.0 0.00 0.00 0.00 41 1009.0
20260503194903 62 216 7.0 17.0 0.00 0.00 0.00 40 1009.0
20260503194757 62 244 7.0 23.0 0.00 0.00 0.00 40 1009.0
20260503194652 62 236 7.0 23.0 0.00 0.00 0.00 40 1009.0
20260503194546 62 220 3.0 23.0 0.00 0.00 0.00 43 1009.3
20260503194440 61 251 4.0 23.0 0.00 0.00 0.00 42 1009.0
20260503194334 61 228 10.0 23.0 0.00 0.00 0.00 40 1009.3
20260503194246 61 248 8.0 23.0 0.00 0.00 0.00 41 1009.3
20260503194228 61 129 3.0 23.0 0.00 0.00 0.00 41 1009.3
20260503194122 61 225 10.0 23.0 0.00 0.00 0.00 40 1009.0
20260503194016 61 255 8.0 23.0 0.00 0.00 0.00 40 1009.3
20260503193911 61 165 2.0 23.0 0.00 0.00 0.00 41 1009.3
20260503193804 61 206 14.0 23.0 0.00 0.00 0.00 41 1009.3
20260503193738 61 230 10.0 17.0 0.00 0.00 0.00 41 1009.3
20260503193700 61 241 9.0 17.0 0.00 0.00 0.00 41 1009.3
20260503193554 61 217 5.0 17.0 0.00 0.00 0.00 41 1009.3
20260503193448 62 219 10.0 17.0 0.00 0.00 0.00 41 1009.3
20260503193342 62 280 10.0 17.0 0.00 0.00 0.00 41 1009.3
20260503193237 62 220 6.0 24.0 0.00 0.00 0.00 41 1009.3
20260503193131 62 188 3.0 24.0 0.00 0.00 0.00 43 1009.3
20260503193025 62 247 5.0 24.0 0.00 0.00 0.00 41 1009.3
20260503192919 62 219 11.0 24.0 0.00 0.00 0.00 41 1009.3
20260503192814 62 238 8.0 24.0 0.00 0.00 0.00 41 1009.3
20260503192725 62 195 5.0 24.0 0.00 0.00 0.00 41 1009.3
20260503192708 62 277 9.0 24.0 0.00 0.00 0.00 41 1009.3
20260503192603 62 229 6.0 24.0 0.00 0.00 0.00 41 1009.3
20260503192457 62 227 9.0 24.0 0.00 0.00 0.00 41 1009.3
20260503192351 62 197 6.0 24.0 0.00 0.00 0.00 41 1009.6
20260503192246 62 236 9.0 19.0 0.00 0.00 0.00 42 1009.6
20260503192219 62 227 8.0 19.0 0.00 0.00 0.00 41 1009.3
20260503192140 62 205 12.0 19.0 0.00 0.00 0.00 41 1009.3
20260503192034 62 228 8.0 18.0 0.00 0.00 0.00 42 1009.3
20260503191929 62 191 9.0 18.0 0.00 0.00 0.00 41 1009.6
20260503191823 62 187 11.0 18.0 0.00 0.00 0.00 40 1009.6
20260503191717 63 272 9.0 18.0 0.00 0.00 0.00 41 1009.6
20260503191610 63 222 8.0 18.0 0.00 0.00 0.00 41 1009.6
20260503191505 62 183 13.0 18.0 0.00 0.00 0.00 40 1009.6
20260503191359 62 193 6.0 18.0 0.00 0.00 0.00 41 1009.6
20260503191253 62 177 6.0 18.0 0.00 0.00 0.00 42 1009.6
20260503191204 62 209 6.0 18.0 0.00 0.00 0.00 42 1009.3
20260503191147 62 269 8.0 18.0 0.00 0.00 0.00 40 1009.3
20260503191042 62 218 9.0 18.0 0.00 0.00 0.00 40 1009.3
20260503190936 62 237 6.0 18.0 0.00 0.00 0.00 41 1009.6
20260503190830 62 233 10.0 18.0 0.00 0.00 0.00 40 1009.6
20260503190725 62 221 11.0 18.0 0.00 0.00 0.00 41 1010.0
20260503190657 62 264 9.0 18.0 0.00 0.00 0.00 42 1010.0
20260503190620 62 176 3.0 18.0 0.00 0.00 0.00 43 1010.0
20260503190511 62 189 9.0 18.0 0.00 0.00 0.00 42 1009.6
20260503190405 63 229 6.0 16.0 0.00 0.00 0.00 41 1009.6
20260503190303 63 231 8.0 16.0 0.00 0.00 0.00 41 1009.6
20260503190254 61 214 11.0 19.0 0.00 0.00 0.00 42 1010.4
20260503190249 60 236 8.0 19.0 0.00 0.00 0.00 41 1010.0
20260503190245 62 263 6.0 16.0 0.00 0.00 0.00 44 1010.0
20260503190241 61 241 7.0 16.0 0.00 0.00 0.00 41 1010.4
20260503190230 63 218 0.0 16.0 0.00 0.00 0.00 42 1009.6
20260503190222 63 173 10.0 16.0 0.00 0.00 0.00 41 1009.6
20260503185958 62 231 6.0 16.0 0.00 0.00 0.00 43 1009.6
20260503185949 62 247 7.0 16.0 0.00 0.00 0.00 42 1010.0
20260503185940 62 236 6.0 16.0 0.00 0.00 0.00 41 1010.0
20260503185719 62 256 9.0 16.0 0.00 0.00 0.00 42 1009.6
20260503185710 62 231 9.0 15.0 0.00 0.00 0.00 42 1009.6
20260503185449 62 240 3.0 13.0 0.00 0.00 0.00 42 1009.6
20260503185445 63 118 5.0 13.0 0.00 0.00 0.00 43 1010.0
20260503185437 63 225 6.0 13.0 0.00 0.00 0.00 41 1009.6
20260503185427 62 224 2.0 13.0 0.00 0.00 0.00 44 1009.6
20260503185206 62 228 7.0 13.0 0.00 0.00 0.00 42 1010.0
20260503185157 62 163 5.0 14.0 0.00 0.00 0.00 42 1010.0
20260503184929 62 237 5.0 21.0 0.00 0.00 0.00 43 1009.6
20260503184920 61 220 5.0 21.0 0.00 0.00 0.00 43 1009.6
20260503184909 61 80 2.0 21.0 0.00 0.00 0.00 43 1010.0
20260503184648 61 196 7.0 21.0 0.00 0.00 0.00 43 1010.4
20260503184425 61 198 3.0 21.0 0.00 0.00 0.00 43 1010.4
20260503184421 61 211 3.0 21.0 0.00 0.00 0.00 43 1010.4
20260503184412 60 162 4.0 21.0 0.00 0.00 0.00 43 1010.4
20260503184403 60 285 5.0 21.0 0.00 0.00 0.00 42 1010.4
20260503184142 61 268 6.0 21.0 0.00 0.00 0.00 43 1010.4
20260503184132 61 225 11.0 21.0 0.00 0.00 0.00 42 1010.0
20260503183917 60 175 10.0 21.0 0.00 0.00 0.00 43 1010.0
20260503183859 60 227 6.0 19.0 0.00 0.00 0.00 43 1010.0
20260503183850 61 252 7.0 19.0 0.00 0.00 0.00 42 1010.0
20260503183620 61 231 7.0 19.0 0.00 0.00 0.00 42 1010.0
20260503183356 61 232 6.0 19.0 0.00 0.00 0.00 42 1010.0
20260503183348 60 237 9.0 19.0 0.00 0.00 0.00 43 1010.4
20260503183337 60 236 8.0 19.0 0.00 0.00 0.00 41 1010.0
20260503183115 61 235 14.0 19.0 0.00 0.00 0.00 41 1010.4
20260503183105 61 250 9.0 19.0 0.00 0.00 0.00 41 1010.0
20260503182830 61 257 11.0 17.0 0.00 0.00 0.00 41 1010.4
20260503182821 61 152 10.0 17.0 0.00 0.00 0.00 41 1010.4
20260503182544 60 251 8.0 16.0 0.00 0.00 0.00 41 1010.4
20260503182438 60 240 9.0 16.0 0.00 0.00 0.00 41 1010.4
20260503182327 61 294 9.0 16.0 0.00 0.00 0.00 41 1010.4
20260503182314 61 208 9.0 15.0 0.00 0.00 0.00 41 1010.8
20260503182015 61 270 6.0 22.0 0.00 0.00 0.00 43 1010.4
20260503181910 61 256 4.0 22.0 0.00 0.00 0.00 43 1010.4
20260503181805 62 241 5.0 22.0 0.00 0.00 0.00 42 1010.0
20260503181553 61 228 9.0 22.0 0.00 0.00 0.00 42 1010.4
20260503181447 61 249 3.0 22.0 0.00 0.00 0.00 43 1010.0
20260503181343 61 223 7.0 22.0 0.00 0.00 0.00 42 1010.0
20260503181312 61 193 14.0 18.0 0.00 0.00 0.00 42 1010.4
20260503181024 61 205 14.0 18.0 0.00 0.00 0.00 43 1010.4
20260503180920 62 237 6.0 18.0 0.00 0.00 0.00 42 1010.4
20260503180819 62 125 3.0 15.0 0.00 0.00 0.00 44 1010.4
20260503180759 62 224 7.0 15.0 0.00 0.00 0.00 42 1010.4
20260503180456 61 126 5.0 15.0 0.00 0.00 0.00 44 1010.4
20260503180350 61 251 2.0 15.0 0.00 0.00 0.00 44 1010.4
20260503180258 61 233 7.0 16.0 0.00 0.00 0.00 43 1010.4
20260503180140 62 261 12.0 16.0 0.00 0.00 0.00 42 1010.8
20260503180034 62 254 2.0 16.0 0.00 0.00 0.00 42 1010.4
20260503175926 62 228 7.0 16.0 0.00 0.00 0.00 42 1010.8
20260503175821 61 192 4.0 16.0 0.00 0.00 0.00 41 1010.8
20260503175716 61 236 4.0 16.0 0.00 0.00 0.00 44 1010.8
20260503175610 61 266 8.0 16.0 0.00 0.00 0.00 42 1010.8
20260503175522 60 176 5.0 16.0 0.00 0.00 0.00 43 1010.8
20260503175504 60 257 5.0 16.0 0.00 0.00 0.00 43 1010.8
20260503175405 60 347 5.0 16.0 0.00 0.00 0.00 43 1010.8
20260503175259 60 269 13.0 16.0 0.00 0.00 0.00 42 1010.8
20260503175154 60 235 9.0 15.0 0.00 0.00 0.00 43 1010.8
20260503175048 60 250 9.0 19.0 0.00 0.00 0.00 44 1010.8
20260503175021 60 226 11.0 19.0 0.00 0.00 0.00 43 1010.8
20260503174943 60 244 7.0 19.0 0.00 0.00 0.00 43 1010.8
20260503174837 60 204 4.0 19.0 0.00 0.00 0.00 45 1010.8
20260503174731 60 207 5.0 19.0 0.00 0.00 0.00 43 1010.8
20260503174625 59 268 9.0 19.0 0.00 0.00 0.00 43 1010.8
20260503174520 59 235 8.0 19.0 0.00 0.00 0.00 43 1010.8
20260503174414 59 247 4.0 19.0 0.00 0.00 0.00 43 1010.8
20260503174310 59 271 6.0 21.0 0.00 0.00 0.00 43 1010.8
20260503174206 59 346 8.0 21.0 0.00 0.00 0.00 44 1010.8
20260503174059 60 216 5.0 21.0 0.00 0.00 0.00 43 1010.8
20260503174010 60 207 8.0 21.0 0.00 0.00 0.00 44 1010.8
20260503173953 60 188 8.0 21.0 0.00 0.00 0.00 43 1010.8
20260503173848 60 217 10.0 21.0 0.00 0.00 0.00 43 1010.8
20260503173743 59 257 6.0 21.0 0.00 0.00 0.00 44 1010.8
20260503173637 59 220 3.0 21.0 0.00 0.00 0.00 45 1010.8
20260503173530 59 288 4.0 21.0 0.00 0.00 0.00 43 1011.1
20260503173503 59 222 5.0 21.0 0.00 0.00 0.00 44 1011.1
20260503173425 59 234 11.0 21.0 0.00 0.00 0.00 43 1011.1
20260503173319 59 307 9.0 16.0 0.00 0.00 0.00 44 1011.1
20260503173215 59 278 9.0 16.0 0.00 0.00 0.00 43 1011.1
20260503173107 59 222 8.0 16.0 0.00 0.00 0.00 43 1011.1
20260503173002 59 192 11.0 15.0 0.00 0.00 0.00 43 1010.8
20260503172856 59 191 8.0 14.0 0.00 0.00 0.00 44 1011.1
20260503172751 60 269 11.0 14.0 0.00 0.00 0.00 43 1011.1
20260503172645 60 197 9.0 14.0 0.00 0.00 0.00 42 1011.4
20260503172539 60 182 1.0 14.0 0.00 0.00 0.00 44 1011.4
20260503172450 60 263 2.0 14.0 0.00 0.00 0.00 43 1011.4
20260503172433 60 215 0.0 14.0 0.00 0.00 0.00 43 1011.4
20260503172329 60 237 6.0 14.0 0.00 0.00 0.00 44 1011.4
20260503172222 60 212 8.0 14.0 0.00 0.00 0.00 43 1011.4
20260503172117 59 181 3.0 14.0 0.00 0.00 0.00 43 1011.4
20260503172011 59 231 11.0 14.0 0.00 0.00 0.00 43 1011.4
20260503171943 60 243 10.0 14.0 0.00 0.00 0.00 44 1011.4
20260503171905 60 238 6.0 14.0 0.00 0.00 0.00 43 1011.4
20260503171759 60 281 6.0 14.0 0.00 0.00 0.00 42 1011.4
20260503171653 60 257 3.0 14.0 0.00 0.00 0.00 43 1011.1
20260503171548 60 280 6.0 13.0 0.00 0.00 0.00 43 1011.4
20260503171442 60 181 4.0 13.0 0.00 0.00 0.00 44 1011.1
20260503171336 60 225 7.0 13.0 0.00 0.00 0.00 44 1011.4
20260503171231 60 193 4.0 16.0 0.00 0.00 0.00 43 1011.1
20260503171125 60 213 7.0 16.0 0.00 0.00 0.00 43 1011.4
20260503171020 60 217 8.0 16.0 0.00 0.00 0.00 43 1011.4
20260503170930 60 198 4.0 16.0 0.00 0.00 0.00 42 1011.4
20260503170914 60 179 5.0 16.0 0.00 0.00 0.00 43 1011.4
20260503170809 60 242 4.0 16.0 0.00 0.00 0.00 43 1011.1
20260503170703 60 267 6.0 16.0 0.00 0.00 0.00 43 1011.4
20260503170556 60 218 5.0 16.0 0.00 0.00 0.00 44 1011.8
20260503170450 60 200 4.0 16.0 0.00 0.00 0.00 43 1011.4
20260503170425 60 227 7.0 16.0 0.00 0.00 0.00 43 1011.4
20260503170345 60 193 9.0 16.0 0.00 0.00 0.00 42 1011.4
20260503170239 59 193 3.0 14.0 0.00 0.00 0.00 45 1011.4
20260503170145 59 241 8.0 14.0 0.00 0.00 0.00 43 1011.4
20260503160119 57 193 1.0 17.0 0.00 0.00 0.00 45 1012.1
20260503150952 58 224 9.0 15.0 0.00 0.00 0.00 43 1012.1
20260503150847 58 228 5.0 15.0 0.00 0.00 0.00 43 1012.4
20260503150741 58 328 4.0 15.0 0.00 0.00 0.00 43 1012.1
20260503150652 58 275 3.0 15.0 0.00 0.00 0.00 43 1012.1
20260503150636 58 193 5.0 15.0 0.00 0.00 0.00 44 1012.1
20260503150530 57 225 4.0 15.0 0.00 0.00 0.00 44 1012.1
20260503150425 57 221 11.0 15.0 0.00 0.00 0.00 44 1012.4
20260503150318 57 220 10.0 15.0 0.00 0.00 0.00 43 1012.1
20260503150212 58 254 10.0 15.0 0.00 0.00 0.00 43 1012.1
20260503150146 58 254 10.0 15.0 0.00 0.00 0.00 43 1012.1
20260503150111 57 157 9.0 15.0 0.00 0.00 0.00 43 1012.4
20260503140308 54 246 4.0 13.0 0.00 0.00 0.00 47 1012.4
20260503140259 54 253 2.0 13.0 0.00 0.00 0.00 47 1012.8
20260503140255 54 233 3.0 13.0 0.00 0.00 0.00 46 1012.4
20260503140247 54 273 8.0 13.0 0.00 0.00 0.00 46 1012.4
20260503131249 49 148 5.0 11.0 0.00 0.00 0.00 53 1012.8
20260503131215 49 92 1.0 14.0 0.00 0.00 0.00 54 1012.8
20260503131210 49 137 2.0 11.0 0.00 0.00 0.00 53 1012.8
20260503131201 49 266 0.0 11.0 0.00 0.00 0.00 56 1012.8
20260503130932 49 92 1.0 14.0 0.00 0.00 0.00 54 1012.8
20260503130827 48 211 3.0 14.0 0.00 0.00 0.00 54 1012.8
20260503130722 48 239 5.0 14.0 0.00 0.00 0.00 53 1012.8
20260503130616 48 277 4.0 14.0 0.00 0.00 0.00 54 1012.8
20260503130511 48 133 5.0 14.0 0.00 0.00 0.00 54 1012.8
20260503130434 48 288 3.0 14.0 0.00 0.00 0.00 53 1012.8
20260503130405 48 248 8.0 14.0 0.00 0.00 0.00 54 1012.4
20260503130300 48 133 1.0 14.0 0.00 0.00 0.00 56 1012.8
20260503130155 48 236 3.0 14.0 0.00 0.00 0.00 54 1012.8
20260503120155 44 279 4.0 11.0 0.00 0.00 0.00 58 1012.8
20260503110753 40 206 6.0 8.0 0.00 0.00 0.00 60 1013.1
20260503110744 40 191 5.0 8.0 0.00 0.00 0.00 60 1013.1
20260503110522 40 200 6.0 8.0 0.00 0.00 0.00 61 1013.1
20260503110513 40 208 3.0 8.0 0.00 0.00 0.00 61 1013.1
20260503110452 40 215 3.0 6.0 0.00 0.00 0.00 61 1013.1
20260503110230 40 214 4.0 6.0 0.00 0.00 0.00 61 1013.1
20260503110222 39 191 3.0 6.0 0.00 0.00 0.00 62 1013.1
20260503100253 38 216 3.0 6.0 0.00 0.00 0.00 65 1013.5
20260503100148 38 235 2.0 6.0 0.00 0.00 0.00 64 1013.5
20260503100121 38 206 3.0 6.0 0.00 0.00 0.00 64 1013.9
20260503090501 37 194 1.0 2.0 0.00 0.00 0.00 67 1014.2
20260503090356 37 210 2.0 2.0 0.00 0.00 0.00 66 1014.2
20260503090250 37 210 0.0 2.0 0.00 0.00 0.00 67 1013.9
20260503090145 37 202 0.0 2.0 0.00 0.00 0.00 67 1014.2
20260503081532 38 309 1.0 7.0 0.00 0.00 0.00 66 1014.2
20260503081426 38 254 1.0 7.0 0.00 0.00 0.00 66 1013.9